GW1230 Weather Reports


Display with metric or nautical units.
time (UTC)temp
F
wind
direction
speed
MPH
gust
MPH
rain 1hr
in
rain 24hr
in
rain mn
in
humidity
%
barometer
mb
20260509101512 52 223 1.0 1.0 0.00 0.00 0.00 90 1022.9
20260509101009 52 195 2.0 2.0 0.00 0.00 0.00 90 1022.7
20260509100506 52 203 4.0 5.0 0.00 0.00 0.00 89 1022.8
20260509100003 52 192 6.0 7.0 0.00 0.00 0.00 89 1022.9
20260509095459 52 166 3.0 3.0 0.00 0.00 0.00 89 1022.9
20260509094957 52 201 3.0 5.0 0.00 0.00 0.00 88 1022.9
20260509094453 53 216 3.0 3.0 0.00 0.00 0.00 88 1022.8
20260509093950 53 191 4.0 5.0 0.00 0.00 0.00 88 1022.7
20260509093449 53 165 5.0 7.0 0.00 0.00 0.00 87 1023.0
20260509092946 53 203 2.0 3.0 0.00 0.00 0.00 87 1022.9
20260509092444 53 209 3.0 3.0 0.00 0.00 0.00 87 1022.9
20260509091942 53 196 2.0 2.0 0.00 0.00 0.00 87 1023.0
20260509091438 53 169 3.0 3.0 0.00 0.00 0.00 87 1022.8
20260509090936 53 166 4.0 5.0 0.00 0.00 0.00 87 1023.0
20260509090433 53 211 2.0 3.0 0.00 0.00 0.00 87 1022.9
20260509085931 53 218 5.0 6.0 0.00 0.00 0.00 87 1022.9
20260509085427 53 219 2.0 2.0 0.00 0.00 0.00 87 1022.9
20260509084923 53 225 3.0 5.0 0.00 0.00 0.00 87 1023.1
20260509084420 53 267 0.0 0.0 0.00 0.00 0.00 87 1023.0
20260509083918 53 258 0.0 1.0 0.00 0.00 0.00 87 1023.0
20260509083415 53 212 1.0 2.0 0.00 0.00 0.00 87 1023.1
20260509082912 53 230 0.0 0.0 0.00 0.00 0.00 87 1023.0
20260509082409 53 195 3.0 5.0 0.00 0.00 0.00 87 1023.1
20260509081905 53 198 3.0 5.0 0.00 0.00 0.00 87 1023.2
20260509081403 53 216 4.0 5.0 0.00 0.00 0.00 87 1022.9
20260509080900 53 232 3.0 5.0 0.00 0.00 0.00 87 1022.9
20260509080358 53 209 4.0 5.0 0.00 0.00 0.00 87 1022.8
20260509075856 53 209 5.0 6.0 0.00 0.00 0.00 86 1022.9
20260509075353 53 201 2.0 2.0 0.00 0.00 0.00 86 1023.0
20260509074850 53 216 2.0 2.0 0.00 0.00 0.00 86 1022.8
20260509074348 53 221 2.0 2.0 0.00 0.00 0.00 86 1022.9
20260509073844 53 229 1.0 2.0 0.00 0.00 0.00 86 1022.9
20260509073340 53 199 4.0 5.0 0.00 0.00 0.00 86 1023.0
20260509072837 53 224 1.0 1.0 0.00 0.00 0.00 86 1023.0
20260509072334 53 235 3.0 3.0 0.00 0.00 0.00 86 1022.9
20260509071830 53 226 0.0 0.0 0.00 0.00 0.00 85 1022.9
20260509071327 53 217 1.0 2.0 0.00 0.00 0.00 85 1022.9
20260509070825 53 216 0.0 0.0 0.00 0.00 0.00 85 1022.9
20260509070321 53 247 0.0 0.0 0.00 0.00 0.00 85 1023.0
20260509065818 53 261 0.0 0.0 0.00 0.00 0.00 85 1022.8
20260509065314 53 242 0.0 1.0 0.00 0.00 0.00 85 1022.6
20260509064810 53 246 0.0 1.0 0.00 0.00 0.00 85 1022.8
20260509064308 53 253 0.0 0.0 0.00 0.00 0.00 85 1022.6
20260509063805 53 262 0.0 0.0 0.00 0.00 0.00 85 1022.8
20260509063301 53 275 0.0 0.0 0.00 0.00 0.00 84 1022.7
20260509062758 53 270 0.0 0.0 0.00 0.00 0.00 84 1022.6
20260509062255 53 224 1.0 2.0 0.00 0.00 0.00 84 1022.6
20260509061752 53 259 0.0 1.0 0.00 0.00 0.00 83 1022.5
20260509061250 54 271 0.0 0.0 0.00 0.00 0.00 83 1022.4
20260509060747 54 245 1.0 1.0 0.00 0.00 0.00 83 1022.5
20260509060244 54 230 1.0 1.0 0.00 0.00 0.00 82 1022.5
20260509055739 54 240 0.0 0.0 0.00 0.00 0.00 82 1022.6
20260509055235 54 258 0.0 0.0 0.00 0.00 0.00 82 1022.6
20260509054732 54 259 0.0 0.0 0.00 0.00 0.00 82 1022.4
20260509054229 54 244 3.0 3.0 0.00 0.00 0.00 81 1022.4
20260509053728 54 254 1.0 2.0 0.00 0.00 0.00 81 1022.6
20260509053224 54 265 0.0 1.0 0.00 0.00 0.00 81 1022.6
20260509052722 55 218 5.0 7.0 0.00 0.00 0.00 80 1022.4
20260509052219 55 217 6.0 8.0 0.00 0.00 0.00 80 1022.7
20260509051717 55 271 0.0 1.0 0.00 0.00 0.00 80 1022.3
20260509051215 55 266 0.0 0.0 0.00 0.00 0.00 79 1022.3
20260509050711 55 241 0.0 0.0 0.00 0.00 0.00 79 1022.3
20260509050208 55 248 3.0 3.0 0.00 0.00 0.00 79 1022.4
20260509045705 55 215 3.0 3.0 0.00 0.00 0.00 79 1022.2
20260509045202 55 273 0.0 0.0 0.00 0.00 0.00 78 1022.2
20260509044659 55 268 0.0 0.0 0.00 0.00 0.00 78 1022.1
20260509044157 55 281 0.0 0.0 0.00 0.00 0.00 78 1022.2
20260509043653 55 301 0.0 0.0 0.00 0.00 0.00 77 1022.1
20260509043149 56 295 0.0 0.0 0.00 0.00 0.00 77 1021.9
20260509042646 56 290 0.0 0.0 0.00 0.00 0.00 76 1022.1
20260509042141 56 266 0.0 0.0 0.00 0.00 0.00 76 1022.2
20260509041638 56 273 0.0 0.0 0.00 0.00 0.00 75 1022.1
20260509041136 57 270 2.0 3.0 0.00 0.00 0.00 74 1022.1
20260509040634 57 254 1.0 1.0 0.00 0.00 0.00 74 1022.1
20260509040131 57 241 0.0 1.0 0.00 0.00 0.00 74 1021.8
20260509035627 57 230 1.0 2.0 0.00 0.00 0.00 74 1021.9
20260509035124 57 257 0.0 1.0 0.00 0.00 0.00 73 1021.9
20260509034622 57 261 0.0 0.0 0.00 0.00 0.00 73 1021.7
20260509034119 58 202 3.0 5.0 0.00 0.00 0.00 72 1021.7
20260509033616 58 241 1.0 3.0 0.00 0.00 0.00 72 1021.6
20260509033113 58 194 4.0 5.0 0.00 0.00 0.00 71 1021.6
20260509032610 58 177 2.0 2.0 0.00 0.00 0.00 71 1021.4
20260509032107 58 239 0.0 0.0 0.00 0.00 0.00 70 1021.6
20260509031605 59 211 5.0 6.0 0.00 0.00 0.00 69 1021.4
20260509031102 59 267 3.0 5.0 0.00 0.00 0.00 69 1021.3
20260509030600 59 178 3.0 3.0 0.00 0.00 0.00 68 1021.2
20260509030056 59 228 2.0 3.0 0.00 0.00 0.00 68 1021.2
20260509025553 59 247 4.0 5.0 0.00 0.00 0.00 67 1021.2
20260509025048 60 269 3.0 5.0 0.00 0.00 0.00 66 1021.1
20260509024544 60 185 7.0 8.0 0.00 0.00 0.00 65 1021.2
20260509024040 60 211 6.0 9.0 0.00 0.00 0.00 64 1021.1
20260509023538 60 214 3.0 3.0 0.00 0.00 0.00 63 1021.2
20260509023035 60 233 2.0 2.0 0.00 0.00 0.00 63 1021.2
20260509022532 60 212 4.0 8.0 0.00 0.00 0.00 63 1021.2
20260509022029 61 191 7.0 10.0 0.00 0.00 0.00 63 1021.2
20260509021526 61 250 3.0 6.0 0.00 0.00 0.00 63 1021.1
20260509021023 61 208 5.0 6.0 0.00 0.00 0.00 63 1021.4
20260509020522 61 186 6.0 7.0 0.00 0.00 0.00 63 1020.9
20260509020018 61 178 5.0 6.0 0.00 0.00 0.00 62 1021.1
20260509015517 61 191 2.0 2.0 0.00 0.00 0.00 62 1021.1
20260509015014 62 204 9.0 10.0 0.00 0.00 0.00 61 1020.9
20260509014511 62 194 6.0 7.0 0.00 0.00 0.00 60 1021.1
20260509014007 62 259 1.0 1.0 0.00 0.00 0.00 60 1021.1
20260509013504 62 200 9.0 10.0 0.00 0.00 0.00 60 1021.3
20260509012959 62 219 3.0 3.0 0.00 0.00 0.00 60 1021.0
20260509012456 62 180 6.0 8.0 0.00 0.00 0.00 60 1021.0
20260509011953 62 189 7.0 10.0 0.00 0.00 0.00 60 1021.0
20260509011451 63 160 10.0 13.0 0.00 0.00 0.00 58 1021.0
20260509010948 62 226 1.0 2.0 0.00 0.00 0.00 58 1021.3
20260509010446 62 275 6.0 8.0 0.00 0.00 0.00 58 1021.3
20260509005942 62 168 10.0 11.0 0.00 0.00 0.00 58 1021.2
20260509005441 62 205 3.0 3.0 0.00 0.00 0.00 56 1021.2
20260509004940 62 204 6.0 8.0 0.00 0.00 0.00 56 1021.4
20260509004437 62 178 8.0 9.0 0.00 0.00 0.00 58 1021.3
20260509003935 62 212 5.0 7.0 0.00 0.00 0.00 57 1021.3
20260509003433 62 195 9.0 10.0 0.00 0.00 0.00 57 1021.2
20260509002929 63 290 6.0 9.0 0.00 0.00 0.00 57 1021.2
20260509002427 62 206 6.0 7.0 0.00 0.00 0.00 57 1021.3
20260509001924 63 195 6.0 8.0 0.00 0.00 0.00 56 1021.3
20260509001421 63 218 10.0 11.0 0.00 0.00 0.00 57 1021.2
20260509000918 62 249 3.0 5.0 0.00 0.00 0.00 57 1021.4
20260509000418 62 288 6.0 9.0 0.00 0.00 0.00 57 1021.4
20260508235911 62 184 5.0 6.0 0.00 0.00 0.00 58 1021.2
20260508235409 63 246 5.0 8.0 0.00 0.00 0.00 55 1021.1
20260508234905 64 181 9.0 10.0 0.00 0.00 0.00 54 1021.1
20260508234402 63 282 1.0 2.0 0.00 0.00 0.00 55 1021.3
20260508233900 62 256 3.0 5.0 0.00 0.00 0.00 56 1021.2
20260508233400 62 204 9.0 11.0 0.00 0.00 0.00 55 1021.1
20260508232856 63 201 8.0 14.0 0.00 0.00 0.00 56 1021.1
20260508232352 62 171 7.0 9.0 0.00 0.00 0.00 56 1021.1
20260508231851 62 147 10.0 11.0 0.00 0.00 0.00 57 1021.1
20260508231346 61 222 7.0 8.0 0.00 0.00 0.00 57 1021.2
20260508230844 62 178 8.0 9.0 0.00 0.00 0.00 58 1021.1
20260508230340 62 272 1.0 3.0 0.00 0.00 0.00 57 1021.2
20260508225838 60 193 8.0 8.0 0.00 0.00 0.00 59 1021.3
20260508225334 61 188 8.0 9.0 0.00 0.00 0.00 59 1021.2
20260508224832 61 198 7.0 9.0 0.00 0.00 0.00 59 1021.2
20260508224330 61 202 7.0 9.0 0.00 0.00 0.00 60 1021.3
20260508223827 62 153 9.0 11.0 0.00 0.00 0.00 59 1021.3
20260508223324 60 183 9.0 10.0 0.00 0.00 0.00 60 1021.2
20260508222821 61 186 5.0 7.0 0.00 0.00 0.00 59 1021.3
20260508222318 60 184 6.0 7.0 0.00 0.00 0.00 61 1021.4
20260508221815 60 180 6.0 9.0 0.00 0.00 0.00 61 1021.2
20260508221310 60 165 7.0 9.0 0.00 0.00 0.00 62 1021.4
20260508220807 60 203 2.0 6.0 0.00 0.00 0.00 62 1021.3
20260508220304 60 218 3.0 5.0 0.00 0.00 0.00 60 1021.2
20260508215800 59 197 6.0 7.0 0.00 0.00 0.00 62 1021.4
20260508215257 60 181 9.0 10.0 0.00 0.00 0.00 62 1021.2
20260508214754 60 278 3.0 3.0 0.00 0.00 0.00 62 1021.0
20260508214251 58 231 3.0 5.0 0.00 0.00 0.00 64 1021.3
20260508213748 59 185 6.0 7.0 0.00 0.00 0.00 63 1021.2
20260508213244 59 148 4.0 5.0 0.00 0.00 0.00 63 1021.3
20260508212741 59 187 6.0 8.0 0.00 0.00 0.00 64 1021.4
20260508212237 58 194 13.0 15.0 0.00 0.00 0.00 65 1021.3
20260508211733 59 218 4.0 5.0 0.00 0.00 0.00 63 1021.3
20260508211229 58 248 5.0 7.0 0.00 0.00 0.00 64 1021.3
20260508210727 58 179 6.0 9.0 0.00 0.00 0.00 65 1021.3
20260508210223 57 125 5.0 7.0 0.00 0.00 0.00 66 1021.4
20260508205720 58 136 9.0 10.0 0.00 0.00 0.00 64 1021.2
20260508205217 59 206 6.0 9.0 0.00 0.00 0.00 65 1021.3
20260508204713 58 164 7.0 9.0 0.00 0.00 0.00 64 1021.3
20260508204210 58 212 5.0 6.0 0.00 0.00 0.00 66 1021.4
20260508203706 57 177 6.0 8.0 0.00 0.00 0.00 66 1021.3
20260508203202 56 200 5.0 6.0 0.00 0.00 0.00 67 1021.3
20260508202658 56 172 9.0 10.0 0.00 0.00 0.00 67 1021.2
20260508202155 56 173 5.0 5.0 0.00 0.00 0.00 67 1021.2
20260508201652 56 250 2.0 3.0 0.00 0.00 0.00 68 1021.1
20260508201149 56 243 3.0 5.0 0.00 0.00 0.00 67 1021.2
20260508200646 56 189 2.0 5.0 0.00 0.00 0.00 68 1021.3
20260508200142 56 217 5.0 6.0 0.00 0.00 0.00 68 1021.3
20260508195638 56 202 8.0 10.0 0.00 0.00 0.00 69 1021.2
20260508195135 56 229 9.0 11.0 0.00 0.00 0.00 68 1021.2
20260508194631 56 256 3.0 6.0 0.00 0.00 0.00 69 1021.0
20260508194128 57 197 4.0 5.0 0.00 0.00 0.00 66 1021.0
20260508193625 56 214 6.0 8.0 0.00 0.00 0.00 68 1020.9
20260508193122 56 193 5.0 9.0 0.00 0.00 0.00 66 1021.1
20260508192619 55 204 2.0 3.0 0.00 0.00 0.00 68 1021.2
20260508192116 56 192 6.0 7.0 0.00 0.00 0.00 67 1021.0
20260508191613 56 244 6.0 8.0 0.00 0.00 0.00 67 1020.9
20260508191109 56 229 5.0 8.0 0.00 0.00 0.00 67 1021.0
20260508190607 55 226 6.0 8.0 0.00 0.00 0.00 68 1020.9
20260508190103 55 205 5.0 8.0 0.00 0.00 0.00 69 1021.0
20260508185600 54 182 13.0 15.0 0.00 0.00 0.00 69 1020.9
20260508185057 54 216 7.0 10.0 0.00 0.00 0.00 70 1021.0
20260508184555 54 214 17.0 21.0 0.00 0.00 0.00 69 1020.9
20260508184051 55 193 4.0 6.0 0.00 0.00 0.00 70 1020.9
20260508183548 55 183 4.0 7.0 0.00 0.00 0.00 69 1020.8
20260508183043 54 184 11.0 14.0 0.00 0.00 0.00 70 1021.0
20260508182535 55 192 5.0 8.0 0.00 0.00 0.00 70 1020.9
20260508182032 54 177 11.0 14.0 0.00 0.00 0.00 71 1020.6
20260508181527 55 236 6.0 8.0 0.00 0.00 0.00 71 1020.6
20260508181025 54 252 6.0 7.0 0.00 0.00 0.00 71 1020.4
20260508180521 54 177 7.0 8.0 0.00 0.00 0.00 70 1020.5
20260508180018 54 173 6.0 9.0 0.00 0.00 0.00 71 1020.4
20260508175514 54 201 9.0 13.0 0.00 0.00 0.00 71 1020.5
20260508175012 54 210 4.0 6.0 0.00 0.00 0.00 73 1020.4
20260508174509 54 180 9.0 11.0 0.00 0.00 0.00 72 1020.2
20260508174006 54 222 7.0 10.0 0.00 0.00 0.00 73 1020.4
20260508173503 54 223 5.0 7.0 0.00 0.00 0.00 74 1020.2
20260508172959 54 181 3.0 5.0 0.00 0.00 0.00 74 1020.2
20260508172456 53 226 6.0 8.0 0.00 0.00 0.00 74 1019.9
20260508171952 54 209 5.0 7.0 0.00 0.00 0.00 74 1020.0
20260508171449 54 161 6.0 9.0 0.00 0.00 0.00 74 1019.7
20260508170945 54 267 3.0 5.0 0.00 0.00 0.00 74 1019.5
20260508170443 53 254 1.0 1.0 0.00 0.00 0.00 75 1019.8
20260508165939 53 171 14.0 16.0 0.00 0.00 0.00 75 1019.8
20260508165438 54 191 7.0 7.0 0.00 0.00 0.00 75 1019.4
20260508164933 54 157 5.0 8.0 0.00 0.00 0.00 74 1019.6
20260508164430 53 186 6.0 8.0 0.00 0.00 0.00 76 1019.4
20260508163927 53 179 10.0 11.0 0.00 0.00 0.00 76 1019.6
20260508163425 53 182 5.0 6.0 0.00 0.00 0.00 76 1019.5
20260508162920 53 188 6.0 8.0 0.00 0.00 0.00 77 1019.5
20260508162418 53 198 5.0 7.0 0.00 0.00 0.00 77 1019.4
20260508161914 53 205 8.0 10.0 0.00 0.00 0.00 76 1019.4
20260508161412 52 190 6.0 8.0 0.00 0.00 0.00 76 1019.3
20260508160909 52 142 5.0 7.0 0.00 0.00 0.00 77 1019.3
20260508160403 53 155 5.0 6.0 0.00 0.00 0.00 77 1019.4
20260508155858 52 185 11.0 14.0 0.00 0.00 0.00 77 1019.4
20260508155355 53 187 7.0 8.0 0.00 0.00 0.00 76 1019.2
20260508154852 53 199 11.0 11.0 0.00 0.00 0.00 77 1019.4
20260508154350 52 197 3.0 5.0 0.00 0.00 0.00 78 1019.3
20260508153846 52 188 5.0 7.0 0.00 0.00 0.00 79 1019.2
20260508153343 51 240 2.0 2.0 0.00 0.00 0.00 80 1019.5
20260508152839 51 190 12.0 15.0 0.00 0.00 0.00 80 1019.6
20260508152336 51 188 6.0 9.0 0.00 0.00 0.00 80 1019.4
20260508151832 52 175 9.0 11.0 0.00 0.00 0.00 79 1019.5
20260508151329 52 185 4.0 7.0 0.00 0.00 0.00 80 1019.5
20260508150826 52 195 4.0 7.0 0.00 0.00 0.00 80 1019.4
20260508150322 51 153 11.0 15.0 0.00 0.00 0.00 80 1019.2
20260508145818 51 202 7.0 8.0 0.00 0.00 0.00 81 1019.2
20260508145314 51 263 7.0 8.0 0.00 0.00 0.00 82 1019.2
20260508144812 51 209 6.0 10.0 0.00 0.00 0.00 83 1019.2
20260508144309 51 191 11.0 15.0 0.00 0.00 0.00 83 1018.9
20260508143801 51 251 8.0 13.0 0.00 0.00 0.00 83 1019.0
20260508143258 51 187 3.0 7.0 0.00 0.00 0.00 84 1018.8
20260508142755 50 191 3.0 5.0 0.00 0.00 0.00 84 1018.7
20260508142252 50 215 5.0 7.0 0.00 0.00 0.00 86 1018.6
20260508141748 50 178 5.0 7.0 0.00 0.00 0.00 86 1018.7
20260508141246 50 185 6.0 7.0 0.00 0.00 0.00 86 1018.7
20260508140743 50 196 7.0 9.0 0.00 0.00 0.00 86 1018.6
20260508140239 50 199 7.0 8.0 0.00 0.00 0.00 86 1018.2
20260508135735 51 186 4.0 5.0 0.00 0.00 0.00 86 1018.4
20260508135232 51 195 7.0 8.0 0.00 0.00 0.00 86 1018.1
20260508134727 51 190 7.0 7.0 0.00 0.00 0.00 85 1018.2
20260508134225 51 198 6.0 7.0 0.00 0.00 0.00 85 1018.0
20260508133721 51 201 3.0 3.0 0.00 0.00 0.00 85 1017.9
20260508133219 51 161 6.0 8.0 0.00 0.00 0.00 85 1017.5
20260508132717 51 180 5.0 6.0 0.00 0.00 0.00 85 1017.5
20260508132214 51 172 5.0 7.0 0.00 0.00 0.00 85 1017.7
20260508131709 51 199 3.0 3.0 0.00 0.00 0.00 85 1017.8
20260508131206 51 200 3.0 3.0 0.00 0.00 0.00 85 1017.6
20260508130703 51 199 3.0 5.0 0.00 0.00 0.00 85 1017.5
20260508130200 51 212 6.0 8.0 0.00 0.00 0.00 86 1017.5
20260508125655 51 156 1.0 1.0 0.00 0.00 0.00 86 1017.4
20260508125152 51 196 1.0 1.0 0.00 0.00 0.00 86 1017.3
20260508124650 51 220 2.0 2.0 0.00 0.00 0.00 87 1017.1
20260508124147 51 217 3.0 5.0 0.00 0.00 0.00 87 1017.2
20260508123646 51 206 4.0 6.0 0.00 0.00 0.00 87 1017.1
20260508123143 51 212 1.0 2.0 0.00 0.00 0.00 88 1017.1
20260508122639 51 196 6.0 7.0 0.00 0.00 0.00 88 1017.3
20260508122136 51 221 3.0 5.0 0.00 0.00 0.00 89 1017.1
20260508121634 51 234 3.0 3.0 0.00 0.00 0.00 89 1017.0
20260508121132 51 157 1.0 1.0 0.00 0.00 0.00 89 1017.0
20260508120629 51 155 2.0 2.0 0.00 0.00 0.00 89 1017.0
20260508120127 51 189 2.0 2.0 0.00 0.00 0.00 89 1017.1
20260508115625 51 180 2.0 3.0 0.00 0.00 0.00 89 1017.2
20260508115121 51 192 5.0 7.0 0.00 0.00 0.00 90 1017.0
20260508114618 51 188 5.0 6.0 0.00 0.00 0.00 90 1017.0
20260508114114 52 227 0.0 0.0 0.00 0.00 0.00 90 1017.2
20260508113612 52 194 5.0 7.0 0.00 0.00 0.00 90 1016.9
20260508113110 52 220 4.0 5.0 0.00 0.00 0.00 91 1017.0
20260508112605 51 197 4.0 6.0 0.00 0.00 0.00 91 1016.8
20260508112103 52 232 0.0 0.0 0.00 0.00 0.00 91 1016.7
20260508111559 52 222 1.0 2.0 0.00 0.00 0.00 91 1016.6
20260508111057 51 178 2.0 2.0 0.00 0.00 0.00 91 1016.7
20260508110555 51 214 2.0 2.0 0.00 0.00 0.00 92 1016.6
20260508110050 51 252 0.0 1.0 0.00 0.00 0.00 92 1016.4
20260508105545 51 262 0.0 0.0 0.00 0.00 0.00 92 1016.6
20260508105043 51 256 0.0 0.0 0.00 0.00 0.00 92 1016.7
20260508104541 51 252 1.0 1.0 0.00 0.00 0.00 93 1016.5
20260508104037 51 265 1.0 1.0 0.00 0.00 0.00 93 1016.4
20260508103534 51 274 1.0 1.0 0.00 0.00 0.00 93 1016.2
20260508103031 51 273 0.0 0.0 0.00 0.00 0.00 94 1016.5
20260508102529 51 272 1.0 1.0 0.00 0.00 0.00 94 1016.4
20260508102026 51 273 0.0 0.0 0.00 0.00 0.00 94 1016.6